Powrót do katalogu

ORBCOMM FM 30

AktywnyŁącznośćLEO
NORAD 25980·PAYLOAD·🇺🇸 United States

Wystrzelony Dec 4, 1999 z Cape Canaveral Space Force Station

Loading…

Następne Przeloty (najbliższe 24 godziny)

TLE

ŚwieżeSource: Space-Track

Epoka: Sep 14, 2026, 13:13 UTC

1 25980U 99065A   26257.55115454  .00000479  00000-0  20261-3 0  9999
2 25980  45.0305  97.1857 0006868 121.2186 238.9336 14.38265968399848

Śledź ORBCOMM FM 30 w czasie rzeczywistym z AllMySat

Download on the App Store